Theta_e
307 307 309 309 311 311 310 310 310 310 312 309 308 307 306 306 306 305 303 303 303 302 302 302 302 302 301 301 302 304 306 307 308 310 313 315 317 320
305 306 307 309 309 309 308 308 308 308 310 308 306 306 304 303 302 302 301 301 300 300 300 300 300 300 299 299 299 301 304 306 308 311 315 314 316 317
304 305 305 306 306 305 305 305 306 307 308 305 304 303 302 301 300 300 299 298 298 297 297 298 298 298 297 296 296 299 301 305 308 313 316 314 315 315
303 303 304 304 303 302 302 302 303 304 304 305 302 301 300 299 298 298 297 295 295 294 294 295 295 294 293 293 296 298 299 302 307 308 315 318 317 318
302 302 302 302 302 301 300 300 301 301 301 302 301 300 299 298 297 296 295 293 293 292 291 291 293 292 291 290 290 293 297 299 303 306 308 315 316 317
300 300 300 300 300 299 299 299 299 299 300 300 300 298 297 296 296 295 293 293 292 291 289 288 288 288 288 287 287 287 292 296 298 302 306 308 310 310
298 299 299 298 298 297 297 297 296 296 298 298 298 296 295 293 293 293 292 291 290 288 287 286 286 286 286 287 289 289 289 293 296 298 300 303 305 306
298 297 297 296 295 293 293 293 293 294 295 296 296 296 295 294 293 290 290 288 288 286 286 285 285 285 286 287 289 289 291 290 291 294 296 297 299 300
297 296 295 293 292 291 290 290 289 290 292 294 295 296 296 295 293 289 287 286 286 285 285 284 285 285 285 288 289 289 289 290 291 290 290 293 295 296
296 296 294 292 290 288 288 287 286 286 286 287 289 292 292 292 290 288 286 285 284 284 285 286 284 284 285 287 287 288 288 289 289 289 290 289 289 289
295 294 293 291 288 287 287 286 285 285 285 286 287 287 287 287 287 286 285 286 286 284 285 285 284 284 284 285 286 287 286 286 287 287 288 288 288 288
294 293 292 291 288 289 287 285 285 285 285 285 285 286 286 285 284 284 284 284 285 285 284 284 284 283 285 285 285 285 285 285 284 285 285 286 286 287
293 293 291 288 288 290 289 286 285 284 285 285 284 283 284 284 283 283 283 283 283 284 285 284 283 283 283 283 283 284 284 284 284 284 284 285 285 285
289 288 286 287 290 290 290 288 286 285 284 285 283 283 283 283 283 283 283 283 283 283 283 283 283 282 282 282 283 282 282 283 283 283 283 283 283 283
286 285 285 286 287 290 289 287 287 286 285 284 284 283 282 282 283 283 283 283 283 282 282 282 282 281 281 281 282 281 282 281 282 282 282 282 282 282
290 287 285 285 285 287 288 288 287 286 286 285 283 283 282 282 282 283 283 283 283 282 281 281 281 281 280 280 280 281 281 281 281 282 281 282 282 282
291 289 287 286 286 286 287 286 286 285 285 285 284 283 282 282 282 282 283 283 282 281 281 281 281 281 281 280 280 281 281 281 281 281 281 281 283 283
289 289 287 286 285 285 286 286 285 284 284 284 284 283 282 281 282 282 282 283 282 282 281 281 281 281 280 280 280 280 280 281 281 281 282 281 282 283
290 289 288 288 288 287 286 285 285 285 285 284 283 283 283 281 281 282 282 282 281 281 281 281 281 280 281 282 281 280 281 281 281 281 281 281 281 282
290 290 289 288 289 289 289 288 287 286 285 285 284 284 283 282 281 281 281 281 281 281 280 280 280 280 280 281 281 280 280 281 281 281 281 281 281 281
289 289 289 288 288 288 287 287 286 286 286 285 284 284 283 282 282 281 281 281 281 280 281 280 281 282 281 279 278 279 280 280 281 281 280 280 280 280
289 288 288 288 288 288 287 287 286 286 286 286 285 284 284 283 283 282 282 281 281 281 281 281 282 280 279 278 280 280 280 280 280 281 280 280 280 281
291 290 288 289 288 288 287 287 286 286 286 286 285 285 285 284 284 283 282 282 281 280 282 281 280 279 279 278 279 279 279 279 279 279 280 280 280 280
Wind_Speed
6 6 6 7 8 8 8 7 5 4 5 5 6 12 12 10 9 8 7 4 1 0 1 1 2 3 4 4 3 6 6 9 14 13 11 15 19 17
6 4 6 7 6 7 8 9 10 8 5 3 8 9 11 9 7 7 6 4 2 1 1 2 2 2 4 5 7 7 11 9 13 12 12 14 19 20
3 5 6 6 5 6 7 8 9 9 6 6 7 9 10 10 9 6 2 2 3 2 1 0 2 3 5 4 7 9 7 8 13 9 8 7 14 15
4 5 6 7 5 7 6 8 11 10 6 4 7 7 9 11 10 6 3 3 4 3 3 3 5 4 5 7 5 6 7 7 8 16 14 11 7 9
3 4 5 6 6 8 9 11 12 11 10 8 7 8 9 12 11 8 6 5 5 4 2 1 3 2 6 7 6 5 5 7 5 9 19 23 25 19
2 1 2 3 6 9 10 11 10 10 9 8 9 8 8 9 10 8 7 6 5 4 4 4 4 3 4 6 7 5 3 4 6 4 8 15 21 24
4 4 4 5 6 7 9 9 8 8 7 8 6 5 6 5 8 7 5 6 4 4 4 4 3 2 1 4 10 9 5 3 3 3 4 6 8 10
6 5 4 3 3 3 2 3 6 7 7 6 7 6 7 6 6 6 7 4 1 4 4 4 2 0 2 4 6 7 8 5 4 3 4 6 6 6
7 7 7 8 7 6 4 3 1 2 6 7 7 8 7 9 8 8 7 6 4 4 2 3 3 2 3 6 5 6 7 7 8 7 4 4 5 5
10 9 9 8 7 7 6 4 2 1 1 4 7 7 7 7 8 7 7 6 5 3 3 2 3 3 4 5 4 5 5 8 8 8 7 6 7 6
10 9 9 8 7 7 5 4 3 3 3 3 4 5 5 6 6 7 8 7 3 3 3 3 4 4 5 6 4 6 3 5 5 5 5 4 6 6
10 9 9 9 8 8 6 6 6 6 6 7 6 6 6 5 6 5 6 6 4 2 6 4 4 3 2 5 7 7 6 2 1 0 2 2 2 4
12 12 11 10 10 9 8 7 7 7 8 6 5 5 6 5 3 4 5 4 5 3 5 4 3 3 3 2 5 8 8 6 5 3 3 4 3 2
12 11 11 11 11 11 10 7 7 8 9 7 7 6 7 7 6 5 4 4 4 3 5 4 2 3 2 2 2 3 6 7 6 6 6 6 4 2
12 11 11 12 12 12 10 10 9 11 9 10 9 9 8 7 8 7 5 4 3 3 4 5 5 5 5 3 2 2 3 4 6 6 6 8 8 7
13 11 11 12 13 13 13 12 13 13 12 11 10 9 8 9 10 10 8 6 4 5 6 5 5 4 4 6 7 8 8 4 2 3 8 12 10 11
18 14 13 14 14 15 16 16 15 13 14 13 11 11 11 11 12 12 11 9 7 5 5 6 6 7 9 10 10 12 12 12 12 12 13 15 12 11
19 20 18 17 18 18 19 18 17 16 16 15 15 14 13 14 13 13 13 13 11 10 9 8 7 6 7 9 14 14 12 13 11 10 10 11 14 9
21 21 20 23 22 20 20 21 20 19 16 16 18 18 17 16 15 16 15 14 13 12 11 10 10 8 4 3 5 10 11 9 8 9 11 13 15 18
22 20 20 23 24 24 23 23 22 20 19 19 21 20 20 19 19 18 17 17 15 11 11 12 13 14 9 4 3 5 9 10 11 11 13 17 21 23
23 24 24 25 25 24 23 21 22 20 20 20 21 22 21 22 23 23 21 19 17 14 12 13 16 12 14 14 8 9 13 13 14 14 14 13 12 11
26 27 28 26 26 25 22 21 21 19 19 20 21 22 22 24 25 25 23 21 19 17 16 14 12 12 15 14 14 11 10 10 12 13 17 18 11 5
28 29 28 29 28 27 23 23 23 23 23 23 23 23 23 25 25 25 25 24 22 21 16 12 14 15 16 15 15 14 14 14 11 12 16 17 23 27
Wind_Direction
241 244 252 252 240 244 249 231 234 281 282 232 242 237 232 228 235 240 221 242 202 151 339 65 329 12 1 330 311 12 11 348 338 320 290 236 222 213
221 236 246 243 239 240 242 246 242 245 261 237 234 245 231 225 225 224 224 208 212 190 245 198 226 323 337 331 5 5 12 2 345 331 313 219 214 218
230 241 242 241 238 248 260 265 257 248 250 241 231 226 221 219 220 226 236 234 179 134 102 184 256 291 306 10 4 8 8 11 2 7 27 187 207 216
230 223 217 208 242 268 277 279 264 255 255 248 229 219 215 211 215 219 214 202 191 86 81 72 59 65 35 24 359 354 356 8 10 35 77 111 172 183
216 212 213 218 238 267 278 275 270 262 252 243 224 228 222 213 206 208 213 209 210 234 245 260 83 44 17 4 347 352 358 10 20 35 70 104 100 113
169 190 244 255 274 274 266 259 259 259 253 241 223 212 215 218 211 207 203 212 223 248 265 269 251 270 319 345 348 357 10 22 28 50 65 83 108 109
208 243 246 253 269 260 247 247 246 249 250 236 208 199 200 188 211 207 193 201 227 253 268 258 262 289 356 30 27 32 43 54 68 69 107 97 103 101
217 220 226 236 199 182 201 240 244 238 227 214 215 212 213 212 214 210 176 168 198 235 226 237 217 157 76 72 45 41 44 56 74 96 105 110 128 126
214 213 212 207 203 203 209 200 212 230 233 231 227 224 232 229 209 204 190 175 174 208 198 214 204 179 144 94 69 55 62 73 72 73 99 131 134 135
214 215 214 213 219 220 227 237 255 307 288 235 228 231 225 213 200 204 197 171 166 185 185 208 198 190 191 168 81 81 77 78 76 72 75 97 114 145
217 218 216 220 223 226 227 222 204 158 115 100 126 143 160 174 181 176 165 160 158 188 199 195 202 200 209 209 193 130 124 88 80 79 78 74 120 132
219 220 222 230 218 204 222 215 204 197 168 152 137 137 149 163 181 189 188 176 142 161 208 198 192 188 203 219 215 209 227 224 157 95 87 103 124 161
222 224 224 221 212 204 224 222 215 207 196 194 181 166 171 189 184 174 171 183 174 177 183 183 203 214 207 201 240 235 235 234 253 247 205 232 230 208
227 228 224 215 212 209 214 237 216 210 198 201 201 201 202 207 193 176 169 171 180 195 193 211 244 225 244 253 232 251 250 262 249 242 243 243 229 240
233 230 224 217 211 212 218 223 209 214 204 206 212 216 217 212 207 199 195 202 214 227 225 240 245 250 255 258 279 263 292 249 257 276 252 244 254 271
231 226 223 219 217 218 215 213 217 222 220 223 224 221 218 213 212 212 213 218 234 243 237 237 240 251 259 262 266 272 265 266 235 229 275 282 277 277
221 216 212 209 212 215 217 220 221 223 224 230 230 225 223 219 216 213 217 214 214 200 201 217 234 255 264 265 267 266 267 268 269 275 279 284 280 273
210 211 216 216 218 220 220 223 225 229 234 234 234 232 231 225 221 219 220 221 226 229 222 227 239 257 284 282 253 255 262 267 274 270 271 273 281 268
210 216 218 224 227 229 237 238 235 236 243 239 238 239 238 233 226 225 226 226 231 236 236 231 229 224 231 252 268 238 244 261 268 271 272 270 275 286
212 217 220 228 235 237 239 242 245 244 240 239 239 240 237 233 228 229 230 231 232 231 234 233 233 230 218 239 253 248 234 248 260 272 281 285 287 291
216 220 228 235 242 242 245 246 247 244 242 240 239 239 238 234 236 238 240 239 235 233 232 233 251 270 257 252 257 257 266 261 264 267 275 282 288 287
224 226 231 240 244 246 247 244 242 240 240 239 238 240 240 239 239 241 239 235 224 231 240 258 260 243 232 228 246 256 268 267 269 270 256 257 246 265
233 234 233 239 242 246 246 246 246 246 244 243 243 241 244 240 240 242 243 242 238 232 241 243 244 235 237 242 252 265 266 270 269 265 270 264 254 260